Weather History for Marianna, FL

Change the Weather History Date:

Monday, February 25, 2013

  Actual Average Record
Temperature  
Mean Temperature 58 °F 57 °F  
Max Temperature 62 °F 69 °F 84 °F (2011)
Min Temperature 53 °F 45 °F 36 °F (1999)
Degree Days  
Heating Degree Days 7    
Month to date heating degree days 251  
Since 1 July heating degree days 977  
Cooling Degree Days 0    
Month to date cooling degree days 6  
Year to date cooling degree days 59  
Growing Degree Days 8 (Base 50)    
Moisture  
Dew Point 56 °F    
Average Humidity 92    
Maximum Humidity 100    
Minimum Humidity 84    
Precipitation  
Precipitation 4.57 in 0.20 in 4.57 in (2013)
Month to date precipitation 11.85 4.39  
Year to date precipitation 12.81 9.43  
Sea Level Pressure  
Sea Level Pressure 29.83 in    
Wind  
Wind Speed 10 mph (ENE)    
Max Wind Speed 21 mph    
Max Gust Speed 29 mph    
Visibility 6 miles    
Events Rain , Thunderstorm    
T = Trace of Precipitation, MM = Missing Value Source: NWS Daily Summary

Daily Weather History Graph

Daily Weather History Graph

Search for Another Location

Airport:

Trip Planner

Search our weather history database for the weather conditions in past years. The results will help you decide how hot, cold, wet, or windy it might be!

Date:

Astronomy

Feb. 25, 2013 Rise Set
Actual Time 6:11 AM CST 5:36 PM CST
Civil Twilight 5:46 AM CST 6:00 PM CST
Nautical Twilight 5:18 AM CST 6:28 PM CST
Astronomical Twilight 4:51 AM CST 6:56 PM CST
Moon 5:44 PM CST (2/25) 5:43 AM CST (2/25)
Length of Visible Light 12h 13m
Length of Day
11h 25m
Full, 100% of the Moon is Illuminated
Feb 25
Full
Feb 25
Full
Mar 4
Last Quarter
Mar 11
New
Mar 19
First Quarter

Hourly Weather History & Observations

Time (CST) Temp. Dew Point Humidity Pressure Visibility Wind Dir Wind Speed Gust Speed Precip Events Conditions
12:02 AM 57.2 °F 53.6 °F 88% 29.90 in 10.0 mi North 9.2 mph - 0.01 in Rain Light Rain
12:12 AM 57.2 °F 53.6 °F 88% 29.92 in 10.0 mi North 5.8 mph - 0.02 in Rain , Thunderstorm Light Thunderstorms and Rain
12:48 AM 55.4 °F 53.6 °F 94% 29.91 in 5.0 mi NNE 8.1 mph - 0.16 in Rain , Thunderstorm Light Thunderstorms and Rain
12:53 AM 55.0 °F 53.1 °F 93% 29.90 in 7.0 mi NE 9.2 mph - 0.16 in Rain Light Rain
1:05 AM 55.4 °F 53.6 °F 94% 29.90 in 10.0 mi NE 10.4 mph - 0.01 in Rain Light Rain
1:12 AM 55.4 °F 51.8 °F 88% 29.88 in 10.0 mi NE 13.8 mph - 0.03 in Rain , Thunderstorm Thunderstorms and Rain
1:31 AM 55.4 °F 51.8 °F 88% 29.89 in 10.0 mi East 5.8 mph - 0.03 in Rain , Thunderstorm Light Thunderstorms and Rain
1:47 AM 53.6 °F 51.8 °F 94% 29.89 in 2.5 mi ENE 11.5 mph - 0.18 in Rain , Thunderstorm Heavy Thunderstorms and Rain
1:53 AM 54.0 °F 52.0 °F 93% 29.88 in 2.0 mi East 10.4 mph - 0.31 in Rain , Thunderstorm Heavy Thunderstorms and Rain
2:00 AM 53.6 °F 51.8 °F 94% 29.89 in 1.8 mi East 9.2 mph - 0.15 in Rain , Thunderstorm Heavy Thunderstorms and Rain
2:33 AM 53.6 °F 51.8 °F 94% 29.86 in 2.5 mi ENE 11.5 mph - 0.97 in Rain Heavy Rain
2:36 AM 53.6 °F 51.8 °F 94% 29.86 in 3.0 mi ENE 9.2 mph - 0.98 in Rain Heavy Rain
2:53 AM 54.0 °F 53.1 °F 97% 29.85 in 5.0 mi ENE 12.7 mph - 1.04 in Rain Heavy Rain
3:16 AM 53.6 °F 53.6 °F 100% 29.82 in 5.0 mi ENE 11.5 mph - 0.09 in Rain Heavy Rain
3:29 AM 55.4 °F 53.6 °F 94% 29.84 in 6.0 mi Variable 3.5 mph - 0.13 in Rain Rain
3:38 AM 53.6 °F 53.6 °F 100% 29.87 in 1.8 mi NW 8.1 mph 17.3 mph 0.30 in Rain Heavy Rain
3:47 AM 53.6 °F 53.6 °F 100% 29.85 in 1.2 mi NE 8.1 mph - 0.44 in Rain , Thunderstorm Heavy Rain
3:48 AM 53.6 °F 53.6 °F 100% 29.84 in 1.5 mi ENE 8.1 mph - 0.44 in Rain , Thunderstorm Heavy Rain
3:53 AM 55.0 °F 54.0 °F 96% 29.83 in 3.0 mi East 10.4 mph - 0.47 in Rain , Thunderstorm Heavy Rain
4:01 AM 55.4 °F 53.6 °F 94% 29.83 in 4.0 mi East 4.6 mph - 0.03 in Rain , Thunderstorm Heavy Thunderstorms and Rain
4:34 AM 55.4 °F 55.4 °F 100% 29.82 in 9.0 mi ENE 8.1 mph - 0.11 in Rain Light Rain
4:53 AM 55.9 °F 55.0 °F 97% 29.84 in 10.0 mi ESE 5.8 mph - 0.11 in   Overcast
5:33 AM 55.4 °F 55.4 °F 100% 29.83 in 10.0 mi East 6.9 mph - 0.00 in   Overcast
5:53 AM 57.0 °F 55.9 °F 96% 29.83 in 10.0 mi East 6.9 mph - 0.00 in   Overcast
6:10 AM 57.2 °F 55.4 °F 94% 29.85 in 10.0 mi East 4.6 mph - N/A Thunderstorm Overcast
6:39 AM 59.0 °F 57.2 °F 94% 29.87 in 2.0 mi Variable 5.8 mph - 0.18 in Rain , Thunderstorm Heavy Rain
6:47 AM 59.0 °F 57.2 °F 94% 29.86 in 4.0 mi East 9.2 mph - 0.20 in Rain Rain
6:53 AM 59.0 °F 57.9 °F 96% 29.86 in 7.0 mi East 9.2 mph - 0.21 in Rain Rain
7:11 AM 59.0 °F 57.2 °F 94% 29.85 in 10.0 mi East 11.5 mph - 0.02 in Rain , Thunderstorm Light Rain
7:33 AM 60.8 °F 57.2 °F 88% 29.85 in 6.0 mi Variable 6.9 mph 20.7 mph 0.08 in Rain Light Rain
7:40 AM 60.8 °F 57.2 °F 88% 29.86 in 10.0 mi Variable 4.6 mph - 0.08 in Rain Light Rain
7:47 AM 60.8 °F 57.2 °F 88% 29.86 in 10.0 mi North 10.4 mph - 0.08 in Rain , Thunderstorm Light Rain
7:53 AM 59.0 °F 57.9 °F 96% 29.86 in 10.0 mi NNE 10.4 mph - 0.09 in Rain , Thunderstorm Light Rain
8:07 AM 59.0 °F 57.2 °F 94% 29.86 in 5.0 mi NNE 12.7 mph 19.6 mph 0.04 in Rain Rain
8:15 AM 57.2 °F 55.4 °F 94% 29.84 in 3.0 mi NE 18.4 mph 24.2 mph 0.11 in Rain , Thunderstorm Heavy Rain
8:17 AM 57.2 °F 55.4 °F 94% 29.85 in 2.5 mi NE 16.1 mph - 0.12 in Rain , Thunderstorm Heavy Rain
8:32 AM 57.2 °F 55.4 °F 94% 29.87 in 1.5 mi NE 15.0 mph 26.5 mph 0.26 in Rain , Thunderstorm Heavy Thunderstorms and Rain
8:48 AM 55.4 °F 55.4 °F 100% 29.89 in 0.8 mi NNE 8.1 mph - 0.56 in Rain , Thunderstorm Heavy Rain
8:53 AM 55.9 °F 55.9 °F 100% 29.89 in 1.0 mi North 9.2 mph - 0.62 in Rain , Thunderstorm Heavy Rain
9:00 AM 55.4 °F 55.4 °F 100% 29.90 in 1.5 mi NE 12.7 mph - 0.07 in Rain Heavy Rain
9:13 AM 55.4 °F 55.4 °F 100% 29.90 in 2.5 mi NNE 8.1 mph - 0.15 in Rain Heavy Rain
9:28 AM 55.4 °F 55.4 °F 100% 29.91 in 3.0 mi North 10.4 mph - 0.23 in Rain Heavy Rain
9:37 AM 55.4 °F 55.4 °F 100% 29.90 in 2.5 mi NNE 12.7 mph - 0.28 in Rain Heavy Rain
9:50 AM 57.2 °F 55.4 °F 94% 29.91 in 3.0 mi ENE 8.1 mph - 0.34 in Rain Heavy Rain
9:53 AM 57.0 °F 55.9 °F 96% 29.90 in 3.0 mi ENE 9.2 mph - 0.36 in Rain Heavy Rain
10:51 AM 57.2 °F 55.4 °F 94% 29.89 in 4.0 mi ENE 10.4 mph - 0.27 in Rain Rain
10:53 AM 57.9 °F 55.9 °F 93% 29.89 in 4.0 mi East 11.5 mph - 0.27 in Rain Rain
11:53 AM 57.9 °F 57.0 °F 97% 29.84 in 6.0 mi East 13.8 mph 23.0 mph 0.13 in Rain Rain
12:22 PM 57.2 °F 57.2 °F 100% 29.81 in 6.0 mi East 17.3 mph 24.2 mph 0.05 in Rain Rain
12:53 PM 59.0 °F 57.0 °F 93% 29.81 in 4.0 mi East 12.7 mph 21.9 mph 0.11 in Rain Heavy Rain
1:53 PM 62.1 °F 57.9 °F 86% 29.77 in 10.0 mi ESE 11.5 mph 28.8 mph 0.02 in   Scattered Clouds
2:53 PM 62.1 °F 57.9 °F 86% 29.75 in 10.0 mi ESE 12.7 mph 21.9 mph N/A   Scattered Clouds
3:53 PM 62.1 °F 57.9 °F 86% 29.73 in 10.0 mi East 10.4 mph 18.4 mph N/A   Partly Cloudy
4:19 PM 62.6 °F 57.2 °F 82% 29.74 in 10.0 mi Variable 5.8 mph - N/A   Mostly Cloudy
4:53 PM 62.1 °F 57.9 °F 86% 29.75 in 10.0 mi East 4.6 mph - N/A   Overcast
5:53 PM 61.0 °F 59.0 °F 93% 29.74 in 10.0 mi ESE 4.6 mph - 0.03 in Rain Light Rain
6:34 PM 60.8 °F 59.0 °F 94% 29.75 in 10.0 mi East 6.9 mph - 0.02 in Rain Light Rain
6:53 PM 60.1 °F 57.9 °F 93% 29.75 in 10.0 mi East 6.9 mph - 0.04 in Rain Rain
7:53 PM 59.0 °F 57.9 °F 96% 29.71 in 10.0 mi East 9.2 mph - 0.03 in   Overcast
8:53 PM 59.0 °F 57.9 °F 96% 29.73 in 10.0 mi East 8.1 mph - 0.04 in Rain Light Rain
9:53 PM 60.1 °F 59.0 °F 96% 29.71 in 5.0 mi East 9.2 mph - 0.07 in Rain Heavy Rain
10:38 PM 60.8 °F 59.0 °F 94% 29.71 in 3.0 mi SE 6.9 mph - 0.28 in Rain Heavy Rain
10:49 PM 60.8 °F 59.0 °F 94% 29.69 in 3.0 mi East 11.5 mph 19.6 mph 0.35 in Rain Heavy Rain
10:53 PM 60.1 °F 59.0 °F 96% 29.69 in 4.0 mi ESE 11.5 mph 19.6 mph 0.37 in Rain Heavy Rain
11:53 PM 61.0 °F 60.1 °F 97% 29.62 in 8.0 mi East 13.8 mph 25.3 mph 0.08 in Rain Light Rain